STARLINK-1712 (46581 NORAD) Tracking and Keplerian Element Data

This shows tracking and keplerian element data for the satellite.

Feedback or suggestion? Click here.




ElementValue
Catalog46581
NameSTARLINK-1712
Epoch Orbit176
Epoch Day304.91667824
Epoch Year2020
RAAN321.9031
Inclination53.0015
Eccentricity0.0001239
Argument of Perigee66.6408
Mean Anonmoly209.7207
Mean Motion15.62752296
Decay Rate-4.75E-06
L11 46581U 20070BB 20304.91667824 -.00000475 00000-0 64628-6 0 9994
L22 46581 53.0015 321.9031 0001239 66.6408 209.7207 15.62752296 1760

Live tracking and technical data element details for STARLINK-1712 (NORAD 46581). STARLINK-1712 can be tracked NOW for your location showing map with azimuth and elevation plus other details from your city location.

Track the satellite on the map from your city or location and see movement details for azimuth, elevation, latitude, longitude, range, height, and movement on the map or in text.







IsCatalogInMostPopularTable: catalog: 46581, numindb: 3
Update: records affected: 1



GetName: 46581 STARLINK-1712

Hit Count: updated at: Sat, 31 Oct 2020 10:40:27 GMT